EW5186 Weather Reports


Display with metric or nautical units.
time (UTC)temp
F
wind
direction
speed
MPH
gust
MPH
rain 1hr
in
rain 24hr
in
rain mn
in
humidity
%
barometer
mb
20260901094523 67 150 0.0 0.0 0.02 0.06 0.05 95 1017.7
20260901093021 67 211 0.0 3.0 0.03 0.06 0.05 95 1017.5
20260901091520 67 113 0.0 3.0 0.03 0.06 0.05 95 1017.8
20260901090017 67 34 0.0 2.0 0.02 0.05 0.04 95 1017.9
20260901084515 67 192 0.0 0.0 0.01 0.04 0.03 94 1018.2
20260901083057 68 69 0.0 1.0 0.01 0.03 0.02 94 1018.2
20260901081556 68 69 0.0 1.0 0.01 0.03 0.02 94 1018.4
20260901080039 68 103 0.0 2.0 0.01 0.03 0.02 94 1018.3
20260901074540 68 72 0.0 0.0 0.02 0.03 0.02 94 1018.4
20260901073018 68 72 0.0 0.0 0.01 0.02 0.01 93 1018.5
20260901071518 68 72 0.0 0.0 0.01 0.02 0.01 93 1018.5
20260901070106 68 72 0.0 0.0 0.01 0.02 0.01 93 1018.5
20260901064557 68 72 0.0 1.0 0.00 0.01 0.00 93 1018.6
20260901063039 68 72 0.0 1.0 0.00 0.01 0.00 92 1018.7
20260901061536 68 72 0.0 1.0 0.00 0.01 0.00 92 1018.8
20260901060024 68 72 0.0 0.0 0.00 0.01 0.00 91 1018.8
20260901054523 68 72 0.0 1.0 0.00 0.01 0.00 90 1018.9
20260901053021 68 72 0.0 1.0 0.00 0.01 0.00 90 1019.1
20260901051521 68 72 0.0 0.0 0.00 0.01 0.00 90 1019.1
20260901050021 68 72 0.0 1.0 0.00 0.01 0.00 90 1019.2
20260901044519 69 72 0.0 0.0 0.00 0.01 0.00 89 1019.5
20260901043021 69 72 0.0 0.0 0.00 0.01 0.00 89 1019.5
20260901041516 69 72 0.0 1.0 0.00 0.01 0.00 88 1019.4
20260901040107 68 77 0.0 0.0 0.00 0.01 0.01 89 1019.5
20260901034607 68 75 0.0 1.0 0.00 0.01 0.01 88 1019.4
20260901033037 68 136 0.0 0.0 0.00 0.01 0.01 88 1019.6
20260901031538 69 136 0.0 0.0 0.00 0.01 0.01 87 1019.8
20260901030019 69 136 0.0 0.0 0.00 0.01 0.01 87 1019.8
20260901024519 69 136 0.0 0.0 0.00 0.01 0.01 86 1019.8
20260901023007 69 200 0.0 1.0 0.00 0.01 0.01 86 1019.8
20260901021503 69 84 0.0 0.0 0.00 0.01 0.01 86 1019.7
20260901020045 69 79 0.0 1.0 0.00 0.01 0.01 86 1019.9
20260901014543 69 122 0.0 0.0 0.00 0.01 0.01 86 1020.3
20260901013033 69 117 0.0 1.0 0.00 0.01 0.01 85 1020.2
20260901011532 69 105 0.0 1.0 0.00 0.01 0.01 85 1020.1
20260901010031 69 105 0.0 0.0 0.00 0.01 0.01 85 1020.0
20260901004531 69 170 0.0 1.0 0.00 0.01 0.01 84 1020.0
20260901003030 69 168 0.0 1.0 0.00 0.01 0.01 84 1019.8
20260901001530 69 78 0.0 0.0 0.00 0.01 0.01 83 1019.9
20260901000029 69 78 0.0 1.0 0.00 0.01 0.01 82 1019.8
20260831234532 69 100 0.0 1.0 0.00 0.01 0.01 81 1020.0
20260831233014 70 169 0.0 0.0 0.00 0.01 0.01 80 1020.1
20260831231523 70 149 0.0 1.0 0.00 0.01 0.01 79 1020.2
20260831230051 70 214 0.0 2.0 0.00 0.01 0.01 78 1020.3
20260831224550 71 145 0.0 1.0 0.00 0.01 0.01 77 1020.4
20260831223037 71 198 0.0 3.0 0.00 0.01 0.01 77 1020.4
20260831221533 71 108 0.0 2.0 0.00 0.01 0.01 77 1020.3
20260831220014 72 200 0.0 3.0 0.00 0.01 0.01 79 1020.3
20260831214512 72 228 0.0 5.0 0.00 0.01 0.01 79 1020.4
20260831213058 73 124 0.0 5.0 0.00 0.01 0.01 78 1020.5
20260831211555 73 67 0.0 3.0 0.00 0.01 0.01 77 1020.3
20260831210043 74 210 0.0 6.0 0.00 0.01 0.01 76 1020.3
20260831204543 75 131 0.0 3.0 0.00 0.01 0.01 75 1020.3
20260831203041 76 92 0.0 3.0 0.00 0.01 0.01 72 1020.3
20260831201542 77 193 0.0 3.0 0.00 0.01 0.01 68 1020.4
20260831200040 78 193 0.0 4.0 0.00 0.01 0.01 67 1020.6
20260831194558 77 135 0.0 6.0 0.00 0.01 0.01 67 1020.7
20260831193040 78 352 0.0 6.0 0.00 0.01 0.01 66 1020.8
20260831191539 76 150 0.0 3.0 0.00 0.01 0.01 67 1021.0
20260831190044 76 108 0.0 6.0 0.00 0.01 0.01 68 1021.1
20260831184521 77 154 1.0 4.0 0.00 0.01 0.01 66 1021.0
20260831183020 77 134 0.0 6.0 0.00 0.01 0.01 64 1021.1
20260831181502 78 67 1.0 8.0 0.00 0.01 0.01 65 1021.1
20260831180001 77 133 0.0 5.0 0.00 0.01 0.01 67 1021.2
20260831174543 79 56 1.0 5.0 0.00 0.01 0.01 66 1021.2
20260831173045 79 125 0.0 4.0 0.00 0.01 0.01 63 1021.3
20260831171527 80 286 0.0 6.0 0.00 0.01 0.01 60 1021.3
20260831170023 81 122 0.0 3.0 0.00 0.01 0.01 63 1021.3
20260831164503 79 290 0.0 4.0 0.00 0.01 0.01 64 1021.6
20260831163003 78 331 0.0 4.0 0.00 0.01 0.01 66 1021.5
20260831161650 78 84 2.0 4.0 0.00 0.01 0.01 64 1021.7
20260831160048 78 79 0.0 6.0 0.00 0.01 0.01 64 1021.8
20260831154546 78 95 1.0 7.0 0.00 0.01 0.01 63 1021.9
20260831153045 77 76 1.0 5.0 0.00 0.01 0.01 62 1021.8
20260831151543 77 339 2.0 6.0 0.00 0.01 0.01 65 1021.8
20260831150043 77 55 0.0 3.0 0.00 0.01 0.01 70 1021.9
20260831144539 76 73 0.0 5.0 0.00 0.01 0.01 72 1022.0
20260831143049 75 75 0.0 5.0 0.00 0.01 0.01 69 1022.1
20260831141518 75 285 0.0 3.0 0.00 0.01 0.01 72 1021.9
20260831140017 75 82 0.0 1.0 0.00 0.01 0.01 72 1021.9
20260831134556 74 108 0.0 3.0 0.00 0.01 0.01 79 1021.7
20260831133052 73 263 0.0 3.0 0.00 0.01 0.01 77 1021.6
20260831131545 73 256 1.0 3.0 0.00 0.01 0.01 80 1021.9
20260831130031 72 298 0.0 3.0 0.00 0.01 0.01 83 1021.7
20260831124521 70 299 0.0 2.0 0.00 0.01 0.01 85 1021.8
20260831123015 68 294 0.0 2.0 0.00 0.01 0.01 87 1021.6
20260831121515 68 146 0.0 1.0 0.00 0.01 0.01 89 1021.6
20260831120012 65 274 0.0 1.0 0.01 0.01 0.01 95 1021.6
20260831114511 64 253 0.0 0.0 0.01 0.01 0.01 96 1021.4
20260831113009 64 152 0.0 0.0 0.01 0.01 0.01 96 1021.3
20260831111504 63 152 0.0 0.0 0.01 0.01 0.01 96 1021.0
20260831110002 62 152 0.0 0.0 0.00 0.00 0.00 96 1020.7
20260831104545 61 152 0.0 0.0 0.00 0.00 0.00 96 1020.7
20260831103044 61 152 0.0 0.0 0.00 0.00 0.00 96 1020.7
20260831101527 61 152 0.0 0.0 0.00 0.00 0.00 96 1020.7
20260831100025 61 152 0.0 0.0 0.00 0.00 0.00 96 1020.8